カタログに戻る

OPS 0856 DEB

LostPO
NORAD 23837·DEBRIS·🇺🇸 United States

打ち上げ Aug 19, 1966 から Vandenberg Space Force Base

Loading…

次のパス (今後24時間)

TLE

古いSource: Space-Track

元期: Sep 7, 2013, 13:29 UTC

1 23837U 66077J   13250.56235393 -.00000001 +00000-0 +10000-3 0  9992
2 23837 089.6449 145.8369 1205190 295.6331 084.7390 08.70898765130977

AllMySatでOPS 0856 DEBをリアルタイム追跡

Download on the App Store